�������l�o���
Date,Time,MP-1(��Sv/h),MP-2(��Sv/h),MP-3(��Sv/h),MP-4(��Sv/h),MP-5(��Sv/h),MP-6(��Sv/h),MP-7(��Sv/h),MP-8(��Sv/h),����,����(m/s),���J
2022/06/19,00:00,0.582,0.856,0.541,1.025,0.726,0.349,0.596,0.562,�쐼,3.2,��
2022/06/19,00:10,0.583,0.855,0.539,1.026,0.726,0.350,0.596,0.561,�쐼,2.8,��
2022/06/19,00:20,0.580,0.858,0.542,1.024,0.726,0.348,0.595,0.562,��쐼,3.3,��
2022/06/19,00:30,0.583,0.856,0.541,1.027,0.725,0.350,0.595,0.562,��쐼,2.3,��
2022/06/19,00:40,0.584,0.855,0.539,1.025,0.724,0.348,0.595,0.561,��쐼,1.9,��
2022/06/19,00:50,0.581,0.855,0.540,1.026,0.726,0.347,0.595,0.563,��쐼,4.1,��
2022/06/19,01:00,0.583,0.854,0.539,1.027,0.728,0.348,0.596,0.562,��,2.9,��
2022/06/19,01:10,0.581,0.854,0.540,1.028,0.726,0.350,0.597,0.560,��쐼,1.9,��
2022/06/19,01:20,0.582,0.856,0.539,1.027,0.726,0.350,0.596,0.562,�쐼,0.6,��
2022/06/19,01:30,0.583,0.855,0.540,1.027,0.727,0.350,0.596,0.564,��쐼,1.5,��
2022/06/19,01:40,0.582,0.854,0.538,1.026,0.724,0.349,0.597,0.560,�쐼,2.8,��
2022/06/19,01:50,0.583,0.854,0.539,1.026,0.726,0.348,0.596,0.561,�쐼,2.2,��
2022/06/19,02:00,0.584,0.854,0.538,1.026,0.725,0.351,0.596,0.562,��,2.6,��
2022/06/19,02:10,0.582,0.854,0.539,1.028,0.726,0.349,0.596,0.562,��,2.3,��
2022/06/19,02:20,0.583,0.852,0.541,1.026,0.723,0.348,0.596,0.563,��,2.5,��
2022/06/19,02:30,0.584,0.855,0.539,1.025,0.726,0.348,0.595,0.560,��쐼,1.4,��
2022/06/19,02:40,0.582,0.855,0.539,1.025,0.726,0.348,0.596,0.561,���쐼,1.7,��
2022/06/19,02:50,0.583,0.854,0.537,1.028,0.725,0.349,0.598,0.561,���쐼,1.4,��
2022/06/19,03:00,0.581,0.853,0.538,1.027,0.725,0.347,0.595,0.562,-,CALM,��
2022/06/19,03:10,0.582,0.855,0.538,1.028,0.725,0.348,0.596,0.561,�k�k��,1.2,��
2022/06/19,03:20,0.582,0.853,0.539,1.026,0.726,0.348,0.596,0.561,�k�k��,1.2,��
2022/06/19,03:30,0.580,0.854,0.538,1.027,0.726,0.349,0.596,0.561,���k��,0.8,��
2022/06/19,03:40,0.581,0.852,0.539,1.026,0.726,0.349,0.596,0.562,-,CALM,��
2022/06/19,03:50,0.579,0.852,0.538,1.027,0.726,0.348,0.595,0.561,���k��,0.8,��
2022/06/19,04:00,0.579,0.855,0.537,1.026,0.726,0.350,0.596,0.560,�k��,0.9,��
2022/06/19,04:10,0.581,0.851,0.538,1.026,0.723,0.349,0.595,0.561,�k��,1.7,��
2022/06/19,04:20,0.581,0.853,0.537,1.026,0.725,0.349,0.597,0.561,�k��,1.7,��
2022/06/19,04:30,0.580,0.854,0.537,1.026,0.725,0.348,0.596,0.561,�k��,1.5,��
2022/06/19,04:40,0.580,0.852,0.538,1.026,0.725,0.348,0.596,0.561,�k��,2.9,��
2022/06/19,04:50,0.580,0.851,0.538,1.027,0.725,0.348,0.594,0.560,�k��,2.0,��
2022/06/19,05:00,0.580,0.852,0.538,1.024,0.724,0.348,0.595,0.559,�k��,1.9,��
2022/06/19,05:10,0.581,0.852,0.538,1.025,0.724,0.347,0.596,0.560,���k��,1.2,��
2022/06/19,05:20,0.580,0.853,0.537,1.026,0.725,0.348,0.597,0.560,�k��,1.5,��
2022/06/19,05:30,0.583,0.854,0.538,1.026,0.724,0.349,0.597,0.561,�k��,1.2,��
2022/06/19,05:40,0.581,0.852,0.538,1.025,0.725,0.348,0.595,0.562,�k��,1.4,��
2022/06/19,05:50,0.581,0.855,0.536,1.027,0.724,0.348,0.596,0.560,�k��,1.2,��
2022/06/19,06:00,0.582,0.854,0.538,1.025,0.724,0.348,0.595,0.561,�k��,1.7,��
2022/06/19,06:10,0.580,0.852,0.538,1.025,0.726,0.349,0.596,0.561,�k��,1.9,��
2022/06/19,06:20,0.581,0.854,0.539,1.028,0.725,0.349,0.597,0.561,�k��,1.4,��
2022/06/19,06:30,0.580,0.851,0.537,1.026,0.724,0.348,0.596,0.562,�k��,0.8,��
2022/06/19,06:40,0.580,0.850,0.537,1.027,0.724,0.348,0.595,0.562,���쐼,0.6,��
2022/06/19,06:50,0.579,0.852,0.538,1.025,0.724,0.348,0.597,0.562,��,0.9,��
2022/06/19,07:00,0.580,0.851,0.537,1.026,0.723,0.347,0.595,0.562,��,1.2,��
2022/06/19,07:10,0.580,0.850,0.537,1.025,0.725,0.347,0.596,0.561,��쓌,0.9,��
2022/06/19,07:20,0.578,0.853,0.540,1.025,0.724,0.348,0.595,0.561,��쓌,1.2,��
2022/06/19,07:30,0.580,0.850,0.539,1.027,0.725,0.347,0.595,0.560,�쓌,1.5,��
2022/06/19,07:40,0.580,0.849,0.537,1.027,0.725,0.346,0.596,0.562,�쓌,1.2,��
2022/06/19,07:50,0.581,0.852,0.536,1.027,0.724,0.344,0.595,0.559,�쓌,1.5,��
2022/06/19,08:00,0.578,0.853,0.537,1.026,0.723,0.346,0.592,0.558,�쓌,2.0,��
2022/06/19,08:10,0.579,0.850,0.536,1.025,0.725,0.345,0.595,0.560,�쓌,2.0,��
2022/06/19,08:20,0.581,0.852,0.535,1.024,0.724,0.347,0.593,0.558,�쓌,2.3,��
2022/06/19,08:30,0.581,0.854,0.535,1.025,0.725,0.346,0.593,0.561,�쓌,2.9,��
2022/06/19,08:40,0.580,0.852,0.536,1.025,0.726,0.347,0.595,0.560,��쓌,3.1,��
2022/06/19,08:50,0.580,0.852,0.536,1.027,0.725,0.347,0.594,0.559,��쓌,3.1,��
2022/06/19,09:00,0.580,0.852,0.537,1.026,0.725,0.348,0.593,0.560,��쓌,3.9,��
2022/06/19,09:10,0.579,0.852,0.536,1.026,0.725,0.347,0.595,0.560,��쓌,3.9,��
2022/06/19,09:20,0.582,0.855,0.538,1.025,0.725,0.346,0.594,0.560,��쓌,4.1,��
2022/06/19,09:30,0.582,0.855,0.537,1.029,0.723,0.349,0.596,0.559,��쓌,4.5,��
2022/06/19,09:40,0.580,0.854,0.537,1.025,0.724,0.348,0.595,0.560,��쓌,4.7,��
2022/06/19,09:50,0.583,0.855,0.537,1.027,0.723,0.348,0.595,0.559,��쓌,4.4,��
2022/06/19,10:00,0.581,0.855,0.539,1.028,0.725,0.348,0.596,0.559,��,4.8,��
2022/06/19,10:10,0.581,0.854,0.540,1.027,0.726,0.347,0.597,0.560,��,4.4,��
2022/06/19,10:20,0.584,0.857,0.537,1.029,0.725,0.348,0.598,0.562,��쓌,4.3,��
2022/06/19,10:30,0.584,0.854,0.539,1.030,0.725,0.348,0.597,0.562,��쓌,4.7,��
2022/06/19,10:40,0.582,0.854,0.539,1.027,0.727,0.348,0.595,0.560,��쓌,5.6,��
2022/06/19,10:50,0.585,0.856,0.539,1.029,0.728,0.349,0.597,0.559,��,6.3,��
2022/06/19,11:00,0.583,0.854,0.540,1.027,0.727,0.348,0.599,0.561,��,5.0,��
2022/06/19,11:10,0.586,0.857,0.539,1.028,0.728,0.349,0.597,0.560,��쓌,4.6,��
2022/06/19,11:20,0.584,0.856,0.539,1.025,0.727,0.348,0.597,0.561,��,5.6,��
2022/06/19,11:30,0.584,0.857,0.538,1.024,0.728,0.349,0.596,0.560,��,5.8,��
2022/06/19,11:40,0.584,0.857,0.538,1.025,0.727,0.350,0.596,0.561,��,5.7,��
2022/06/19,11:50,0.585,0.856,0.541,1.026,0.727,0.348,0.597,0.560,��,6.0,��
2022/06/19,12:00,0.585,0.857,0.539,1.026,0.728,0.348,0.598,0.560,��,6.3,��
2022/06/19,12:10,0.585,0.857,0.539,1.027,0.728,0.347,0.597,0.559,��쓌,7.0,��
2022/06/19,12:20,0.585,0.856,0.540,1.027,0.728,0.348,0.598,0.561,��쓌,7.4,��
2022/06/19,12:30,0.583,0.856,0.539,1.027,0.729,0.349,0.598,0.561,��쓌,7.9,��
2022/06/19,12:40,0.584,0.858,0.541,1.029,0.729,0.349,0.597,0.560,��쓌,6.6,��
2022/06/19,12:50,0.583,0.858,0.541,1.028,0.729,0.348,0.597,0.561,��쓌,7.9,��
2022/06/19,13:00,0.584,0.859,0.539,1.027,0.730,0.350,0.595,0.561,��쓌,8.8,��
2022/06/19,13:10,0.585,0.858,0.541,1.029,0.729,0.348,0.597,0.561,��쓌,10.2,��
2022/06/19,13:20,0.585,0.859,0.541,1.028,0.731,0.349,0.596,0.562,��쓌,9.1,��
2022/06/19,13:30,0.584,0.857,0.539,1.027,0.729,0.349,0.596,0.561,��쓌,8.5,��
2022/06/19,13:40,0.586,0.857,0.539,1.029,0.730,0.347,0.595,0.561,��,7.4,��
2022/06/19,13:50,0.585,0.859,0.541,1.028,0.730,0.348,0.597,0.562,��,6.9,��
2022/06/19,14:00,0.586,0.861,0.540,1.029,0.731,0.348,0.596,0.560,��,6.2,��
2022/06/19,14:10,0.586,0.861,0.542,1.030,0.729,0.349,0.596,0.561,��,8.3,��
2022/06/19,14:20,0.585,0.859,0.540,1.029,0.731,0.348,0.596,0.561,��쓌,8.2,��
2022/06/19,14:30,0.584,0.858,0.541,1.030,0.731,0.349,0.596,0.560,��,10.2,��
2022/06/19,14:40,0.585,0.860,0.541,1.027,0.727,0.348,0.595,0.560,��쓌,11.0,�L
2022/06/19,14:50,0.578,0.837,0.527,0.994,0.699,0.344,0.585,0.557,��쓌,11.8,�L
2022/06/19,15:00,0.577,0.833,0.531,0.992,0.706,0.347,0.586,0.555,��쓌,10.5,�L
2022/06/19,15:10,0.577,0.834,0.531,0.993,0.706,0.348,0.586,0.555,��,10.2,��
2022/06/19,15:20,0.577,0.834,0.530,0.992,0.706,0.348,0.587,0.555,��,9.0,��
2022/06/19,15:30,0.579,0.835,0.529,0.993,0.707,0.346,0.588,0.553,��,8.8,��
2022/06/19,15:40,0.578,0.836,0.531,0.992,0.707,0.346,0.588,0.555,��,8.0,��
2022/06/19,15:50,0.576,0.836,0.530,0.994,0.707,0.347,0.586,0.556,��,6.9,��
2022/06/19,16:00,0.578,0.834,0.529,0.994,0.706,0.345,0.587,0.557,��,7.1,��
2022/06/19,16:10,0.577,0.836,0.530,0.993,0.705,0.345,0.588,0.555,��,7.1,��
2022/06/19,16:20,0.577,0.834,0.529,0.992,0.705,0.345,0.588,0.554,��,6.6,��
2022/06/19,16:30,0.575,0.834,0.529,0.992,0.705,0.343,0.588,0.556,��,6.6,��
2022/06/19,16:40,0.576,0.833,0.530,0.995,0.705,0.343,0.588,0.556,��,7.3,��
2022/06/19,16:50,0.575,0.835,0.529,0.992,0.707,0.343,0.588,0.554,��,7.4,��
2022/06/19,17:00,0.578,0.837,0.529,0.995,0.704,0.343,0.587,0.555,��,7.3,��
2022/06/19,17:10,0.575,0.835,0.527,0.995,0.706,0.341,0.589,0.555,��,6.9,��
2022/06/19,17:20,0.576,0.836,0.528,0.994,0.705,0.343,0.587,0.554,��,7.8,��
2022/06/19,17:30,0.576,0.835,0.528,0.994,0.705,0.341,0.588,0.555,��,9.2,��
2022/06/19,17:40,0.576,0.835,0.527,0.996,0.706,0.342,0.586,0.555,��,8.0,��
2022/06/19,17:50,0.575,0.836,0.530,0.998,0.704,0.342,0.589,0.556,��,6.4,��
2022/06/19,18:00,0.574,0.835,0.530,0.996,0.706,0.341,0.588,0.555,��,6.3,��
2022/06/19,18:10,0.576,0.834,0.528,0.995,0.706,0.342,0.586,0.557,��,7.3,��
2022/06/19,18:20,0.575,0.835,0.527,0.996,0.708,0.343,0.586,0.556,��,5.9,��
2022/06/19,18:30,0.573,0.834,0.527,0.996,0.707,0.342,0.587,0.557,��,6.2,��
2022/06/19,18:40,0.575,0.837,0.529,0.996,0.707,0.341,0.587,0.558,��,5.1,��
2022/06/19,18:50,0.573,0.838,0.528,0.996,0.708,0.339,0.587,0.558,��,6.0,��
2022/06/19,19:00,0.574,0.836,0.529,0.995,0.706,0.342,0.586,0.558,��,5.8,��
2022/06/19,19:10,0.574,0.836,0.530,0.997,0.708,0.342,0.587,0.559,��쐼,5.4,��
2022/06/19,19:20,0.576,0.838,0.529,0.996,0.708,0.340,0.586,0.557,��,3.5,��
2022/06/19,19:30,0.575,0.837,0.528,0.998,0.709,0.341,0.589,0.558,��쐼,3.8,��
2022/06/19,19:40,0.575,0.839,0.530,0.998,0.708,0.342,0.589,0.558,��,3.5,��
2022/06/19,19:50,0.575,0.837,0.529,0.999,0.709,0.341,0.589,0.558,��,3.4,�L
2022/06/19,20:00,0.577,0.840,0.530,1.000,0.708,0.340,0.588,0.558,��,4.3,�L
2022/06/19,20:10,0.576,0.838,0.530,1.001,0.710,0.343,0.588,0.557,��,5.1,�L
2022/06/19,20:20,0.578,0.839,0.531,1.000,0.709,0.342,0.588,0.557,��,4.9,�L
2022/06/19,20:30,0.577,0.838,0.531,0.999,0.709,0.342,0.587,0.558,��,5.4,��
2022/06/19,20:40,0.577,0.837,0.531,1.000,0.708,0.343,0.588,0.558,��,4.8,��
2022/06/19,20:50,0.578,0.840,0.530,1.001,0.708,0.342,0.589,0.558,��,4.9,��
2022/06/19,21:00,0.578,0.841,0.531,0.999,0.709,0.342,0.589,0.558,��,3.7,��
2022/06/19,21:10,0.577,0.840,0.530,0.999,0.710,0.342,0.589,0.558,��,4.5,��
2022/06/19,21:20,0.576,0.841,0.531,0.999,0.709,0.342,0.588,0.559,��,5.5,��
2022/06/19,21:30,0.575,0.839,0.531,0.999,0.711,0.342,0.589,0.558,��,6.8,��
2022/06/19,21:40,0.576,0.840,0.530,1.002,0.709,0.342,0.589,0.556,��쐼,6.4,��
2022/06/19,21:50,0.577,0.839,0.531,1.002,0.708,0.342,0.589,0.558,��쐼,5.7,�L
2022/06/19,22:00,0.576,0.840,0.530,0.998,0.709,0.341,0.590,0.559,�쐼,3.9,�L
2022/06/19,22:10,0.577,0.839,0.530,0.999,0.708,0.342,0.589,0.558,��쐼,3.9,��
2022/06/19,22:20,0.577,0.839,0.532,1.001,0.709,0.343,0.589,0.559,��쐼,5.7,��
2022/06/19,22:30,0.577,0.838,0.531,1.000,0.709,0.342,0.590,0.557,��쐼,6.1,��
2022/06/19,22:40,0.577,0.839,0.530,1.000,0.709,0.342,0.589,0.558,��쐼,4.7,��
2022/06/19,22:50,0.577,0.839,0.530,0.999,0.708,0.343,0.591,0.558,��쐼,4.8,��
2022/06/19,23:00,0.576,0.841,0.530,1.001,0.710,0.340,0.592,0.557,��쐼,4.3,��
2022/06/19,23:10,0.578,0.839,0.530,1.000,0.709,0.341,0.590,0.559,��쐼,3.5,��
2022/06/19,23:20,0.577,0.840,0.532,0.999,0.710,0.343,0.591,0.559,��쐼,3.3,��
2022/06/19,23:30,0.577,0.840,0.530,1.002,0.709,0.342,0.592,0.559,��쐼,2.0,��
2022/06/19,23:40,0.575,0.838,0.532,0.999,0.710,0.341,0.593,0.558,��쐼,2.6,��
2022/06/19,23:50,0.577,0.837,0.532,1.001,0.711,0.341,0.591,0.558,��쐼,2.3,��
